Location: Boncourt
(49.6160°N, 3.9448°E)
Time: 01:00:43
(UTC+00:00)

Cosmos 2285 Rocket - Pass Details

Date: 09 February 2023
Orbit: 971 x 998 km, 74.0° (Epoch: 21 March)

Event Time Altitude Azimuth Distance (km) Brightness Sun altitude
Rises 19:32:10 0° 336° (NNW) 3,692 7.4 -26.2°
Reaches altitude 10° 19:34:44 10° 339° (NNW) 2,737 6.7 -26.6°
Maximum altitude 19:41:04 72° 64° (ENE) 1,025 3.8 -27.6°
Enters shadow 19:41:08 72° 68° (ENE) 1,025 3.8 -27.6°
